Wind_Speed
33 31 28 27 26 26 26 27 27 28 28 28 28 27 27 27 28 29 30 29 28 27 25 23 20 19 19 22 24 25 25 26 26 26 27 27 28 29 32 36 41 46 51 58 67 78 91 103 112 118 120 119 117 114 112 111 111 110 111 111 111 111 111 111 110 108 106 106 105 103 102 100 99 98 96 95 94 93 93 92 91 90 89 87 86
34 32 31 29 28 28 28 28 28 29 30 30 29 28 28 28 28 29 29 29 28 27 25 22 19 15 14 15 17 18 20 21 21 21 21 21 22 23 24 27 31 36 41 46 51 59 69 81 93 104 112 117 119 118 116 113 112 111 110 110 110 110 110 111 110 109 108 107 106 105 104 104 102 101 99 98 97 96 95 95 94 92 91 90 89
33 33 32 32 31 30 29 29 29 29 29 30 30 30 30 30 29 29 29 29 29 27 25 22 19 15 12 11 11 13 15 17 17 17 16 16 16 16 18 20 22 26 31 36 41 47 54 62 73 84 95 105 111 115 117 117 115 114 112 110 109 108 109 110 110 109 108 107 107 106 106 106 105 103 103 102 101 100 98 97 96 95 94 93 92
32 32 32 32 32 31 31 30 30 30 30 31 31 32 31 31 31 30 29 29 28 27 26 23 20 17 13 10 9 9 11 13 14 13 12 12 12 12 12 14 16 19 22 26 31 37 42 48 56 65 75 86 95 103 109 113 116 116 114 113 111 109 108 108 109 109 108 107 106 106 106 106 106 105 105 105 104 102 101 100 100 99 97 96 95
31 31 31 32 32 32 31 31 31 31 31 32 32 32 32 32 31 31 30 29 28 26 25 24 21 18 15 11 9 8 8 10 11 12 11 11 10 10 9 9 10 13 16 19 24 28 33 38 43 49 57 65 74 83 91 99 106 110 112 113 113 112 111 110 109 109 108 107 105 105 105 106 106 105 105 105 104 104 103 102 102 101 100 99 98
29 29 30 30 31 31 31 31 31 31 31 31 32 32 33 32 32 31 30 30 29 27 24 23 22 19 17 13 10 8 8 8 9 10 10 10 9 9 8 7 7 9 11 13 17 21 25 30 35 39 44 49 56 64 72 80 88 95 101 105 108 109 110 111 111 110 109 107 106 105 106 106 106 105 105 105 104 103 103 103 102 102 102 101 101
29 28 28 29 30 30 30 31 31 31 31 31 31 31 32 33 32 32 31 30 29 28 25 23 21 19 18 15 13 11 9 9 9 9 9 9 9 9 8 7 7 7 7 8 11 14 18 22 27 32 36 40 45 51 57 63 70 77 83 89 95 99 103 106 108 109 109 109 108 107 107 107 107 107 107 106 104 103 103 103 102 102 102 102 102
30 29 28 28 28 29 29 29 29 30 30 30 30 30 31 31 32 32 32 31 30 29 27 24 22 19 18 16 14 13 12 11 10 9 9 9 9 9 9 8 7 7 7 7 7 9 11 14 18 22 27 32 37 41 46 51 56 61 66 73 79 84 90 95 98 101 104 106 107 107 108 108 108 108 109 108 106 104 104 104 104 103 103 103 102
31 30 29 29 29 28 28 28 28 28 28 29 29 30 29 29 30 30 31 31 30 30 29 27 24 21 18 17 15 14 13 12 12 11 10 10 9 9 10 9 9 9 9 9 9 9 9 10 12 15 17 21 25 30 34 39 43 48 52 58 63 69 74 80 84 89 93 97 101 103 105 106 107 108 109 109 108 106 107 108 108 107 106 106 105
32 31 30 29 29 29 28 28 27 27 27 27 27 28 28 28 28 28 29 29 29 29 29 28 26 23 21 19 17 15 13 12 12 12 11 11 10 10 10 10 11 11 12 12 12 12 12 12 13 13 15 16 18 20 23 26 30 34 38 43 48 53 58 63 68 72 78 83 89 93 98 100 102 103 105 107 107 107 108 110 110 110 110 109 108
33 32 30 30 29 29 28 28 27 27 26 26 26 26 26 27 27 27 27 27 28 28 28 28 27 25 22 20 18 17 15 13 12 12 11 11 11 11 10 11 12 13 14 14 15 15 16 16 16 17 17 18 18 19 21 22 24 27 30 33 36 40 44 48 52 57 62 67 72 78 84 88 90 93 96 100 103 104 106 108 109 110 111 111 109
34 33 32 30 29 28 28 28 27 27 27 26 25 25 24 25 26 26 26 26 26 27 27 27 27 26 24 21 19 18 16 15 13 12 11 11 11 11 11 11 12 13 14 15 16 16 17 18 19 19 20 21 22 23 24 25 26 27 28 30 32 34 36 38 40 44 47 51 56 61 67 71 74 78 82 88 93 97 100 102 104 107 109 111 111
35 34 33 32 30 29 28 28 27 27 27 27 26 25 24 23 24 25 26 26 26 26 26 26 26 26 25 23 20 18 17 16 15 14 12 11 11 11 11 11 12 13 14 15 16 17 18 18 19 20 21 22 23 25 26 27 29 30 30 31 31 32 33 34 35 37 39 42 44 47 51 55 58 61 66 71 77 83 87 89 92 97 103 107 110
38 35 33 33 32 31 29 28 27 27 26 26 26 25 24 23 23 23 25 26 26 26 26 26 25 25 25 24 22 19 17 16 16 15 13 12 12 11 11 11 12 13 14 15 16 18 18 19 19 20 21 22 23 24 26 28 30 31 31 32 32 33 34 35 36 37 38 38 39 40 42 44 46 48 50 54 58 64 69 73 76 81 89 96 102
42 38 35 33 33 32 31 29 28 27 26 26 26 25 24 23 22 22 22 24 25 26 27 27 26 25 24 23 22 19 17 16 16 16 15 13 12 11 11 11 11 12 14 15 16 17 18 19 19 20 21 22 23 25 26 27 29 30 31 31 32 34 36 36 37 38 38 38 37 38 39 40 41 41 42 45 47 49 54 58 61 66 72 80 87
47 42 38 34 33 32 32 31 30 29 28 27 26 25 24 23 22 22 21 22 23 25 26 27 28 27 25 23 22 20 18 16 15 15 15 14 13 11 10 11 12 12 13 14 16 17 18 19 20 21 22 24 25 26 27 27 28 29 29 30 31 33 35 36 37 37 38 37 37 37 38 39 40 40 41 43 43 43 46 49 51 54 59 65 70
51 46 42 37 34 32 32 32 31 30 29 28 27 27 25 23 23 23 22 22 22 23 25 26 27 27 26 25 23 21 19 17 15 15 14 14 13 12 10 10 10 12 13 14 15 16 18 19 20 21 23 24 25 26 27 27 27 28 28 29 30 31 32 34 35 36 36 36 36 37 38 39 40 40 41 42 42 42 43 45 46 47 50 54 58
54 51 46 42 37 33 32 32 32 31 30 29 28 28 28 26 24 23 24 23 23 23 24 25 27 27 27 26 24 22 19 17 16 14 14 13 12 11 10 9 8 9 11 13 14 15 17 18 19 21 22 24 25 27 27 28 27 28 28 29 29 30 31 33 34 35 35 36 36 37 38 38 39 39 40 41 42 42 43 43 43 45 47 49 51
57 54 51 46 42 37 33 31 31 32 31 30 29 29 30 29 27 25 24 24 24 24 24 25 26 27 27 26 25 23 21 18 16 15 14 13 12 10 9 8 8 7 8 9 12 14 16 17 18 20 21 23 25 26 28 28 29 29 29 30 30 30 31 33 34 35 36 35 36 37 37 38 38 38 39 40 41 41 42 42 42 43 45 46 48
57 56 54 51 46 41 36 32 31 31 31 31 29 28 29 30 30 29 27 26 25 25 24 25 25 26 27 27 26 25 23 20 19 17 16 15 13 12 10 9 8 7 7 7 8 10 12 15 17 19 20 22 24 25 27 28 28 29 30 30 30 31 32 33 34 35 35 35 36 37 37 37 37 38 39 40 41 41 41 40 41 42 43 44 46
57 57 55 53 50 46 41 35 32 31 30 31 30 29 28 29 30 30 29 28 27 27 26 26 26 26 26 27 27 26 24 22 20 19 18 17 16 15 13 12 11 10 10 9 9 9 10 11 13 15 17 20 22 24 26 27 28 28 28 29 30 31 32 33 33 34 35 35 36 37 36 37 38 39 39 39 40 40 39 39 39 41 41 42 43
56 56 56 55 52 49 45 39 34 31 30 30 30 29 28 28 29 29 30 29 29 28 28 27 27 27 26 26 26 27 26 24 21 20 19 18 16 15 14 13 12 12 12 12 12 11 11 12 12 13 13 15 18 20 23 25 27 28 28 29 30 31 32 33 34 35 35 36 36 36 36 37 38 38 38 38 38 38 38 38 38 39 39 40 40
54 55 56 55 54 51 48 43 37 33 31 30 30 29 28 28 28 28 29 28 29 29 29 28 28 28 28 27 25 26 26 26 23 21 19 18 17 15 13 12 11 11 11 12 12 12 13 13 14 15 15 15 16 17 19 21 23 25 27 29 31 32 33 34 34 35 35 35 36 36 36 37 37 37 36 36 37 37 37 37 37 37 37 37 38
52 53 54 55 54 53 51 47 42 36 32 30 29 29 28 27 27 27 28 27 27 28 28 29 28 28 29 29 27 26 26 26 25 22 19 18 17 16 14 13 12 11 11 11 11 12 12 13 14 15 16 17 18 18 18 18 19 21 23 26 29 32 33 33 34 34 34 35 35 35 36 37 36 35 36 36 37 37 36 36 35 35 35 36 37
51 52 53 54 54 53 52 50 46 41 35 31 29 28 28 27 26 26 26 26 26 26 27 27 28 28 28 28 28 28 27 27 26 24 20 18 17 16 15 14 13 12 12 12 12 13 13 13 13 14 15 17 18 19 20 20 19 19 20 22 25 28 30 32 33 33 33 33 34 35 36 36 35 35 37 38 37 36 35 34 34 33 34 35 35
49 50 51 52 53 53 52 51 49 45 40 35 30 27 27 27 26 25 25 25 25 25 25 26 27 27 27 26 26 26 26 26 25 24 21 18 17 17 16 14 14 14 14 14 14 14 14 14 14 14 15 16 17 19 20 21 21 20 20 20 21 22 25 27 30 31 32 32 33 33 35 36 37 38 38 38 37 36 35 34 33 33 33 35 35
48 49 49 50 51 51 51 51 50 48 45 40 34 29 26 25 25 25 24 24 24 24 24 25 25 26 27 26 25 25 25 24 23 22 20 18 17 17 17 16 15 14 14 15 15 15 15 15 15 15 16 17 18 19 20 21 21 21 21 21 21 21 21 23 25 27 29 31 32 32 33 35 37 38 38 38 37 36 35 35 34 34 35 35 35
47 47 47 48 49 50 51 50 50 49 48 44 39 33 28 25 24 24 24 23 23 23 23 24 24 25 26 26 25 24 24 23 21 20 19 18 17 17 17 16 15 15 15 15 15 15 15 15 15 15 16 17 18 19 19 20 21 22 22 22 22 22 22 22 22 23 25 27 30 31 33 35 35 36 36 37 37 36 36 35 35 35 36 36 36
45 46 46 46 47 49 50 50 49 49 48 47 44 39 32 27 24 23 23 23 22 22 22 23 24 24 25 25 24 24 23 23 22 19 18 17 17 17 17 17 16 15 15 15 15 15 15 15 15 14 15 16 17 17 17 18 19 21 22 22 21 21 21 22 23 23 23 24 26 28 30 32 34 34 35 36 37 36 35 35 35 36 37 37 36
44 44 44 44 45 46 48 49 49 48 48 48 47 44 39 32 26 23 22 22 22 22 22 22 23 23 24 24 24 23 22 22 22 20 18 17 17 17 17 17 16 15 15 15 15 15 15 15 14 14 14 15 16 16 15 15 16 18 20 22 22 21 21 21 22 23 24 25 25 26 28 29 31 33 34 36 37 35 34 34 35 36 37 37 37
44 43 43 43 43 44 45 47 47 48 47 47 47 46 45 40 32 25 20 20 21 22 22 22 22 23 22 22 23 23 21 20 20 20 20 19 18 18 17 17 16 16 16 15 15 15 15 15 15 14 13 13 14 14 14 14 15 16 19 21 22 23 23 23 23 23 24 25 27 28 28 28 29 30 32 34 36 35 34 35 36 37 37 37 37
43 42 42 41 41 42 43 44 45 46 46 46 46 46 45 44 40 34 25 19 17 19 20 21 22 23 22 20 20 21 20 20 19 19 20 20 20 19 18 17 16 16 16 15 15 15 15 15 15 14 13 12 12 11 11 11 13 14 16 18 20 21 23 24 24 24 24 25 26 27 29 29 30 31 31 32 34 35 36 36 37 37 37 37 36
43 42 41 40 40 40 41 42 43 44 45 45 45 45 44 44 43 40 35 26 19 16 17 19 21 23 22 20 18 18 18 19 19 19 20 20 20 20 19 17 16 16 16 16 16 15 15 14 14 14 14 13 13 12 12 11 11 11 12 14 16 17 19 21 22 24 25 25 25 26 27 29 30 31 31 31 32 34 36 37 37 37 37 36 35
43 42 41 40 39 39 39 40 41 42 43 43 43 43 43 42 41 40 38 34 27 20 17 17 19 22 22 20 18 17 16 17 18 19 20 20 19 19 19 18 17 17 17 17 16 15 14 14 13 14 14 14 14 15 15 14 14 13 12 12 13 14 16 17 19 22 25 25 24 24 25 27 29 31 31 31 32 34 35 36 37 37 36 35 34
43 42 40 39 38 38 38 38 39 39 40 41 42 42 42 42 41 39 37 35 31 26 21 19 20 21 22 20 18 16 15 16 16 18 20 20 19 18 18 18 18 18 18 18 17 16 15 14 13 13 14 14 15 15 16 16 16 16 15 14 14 14 14 15 17 19 22 24 24 24 24 24 27 29 30 30 31 33 34 36 36 36 36 35 34
42 41 40 39 38 37 37 36 37 37 38 39 40 40 40 40 40 39 37 34 31 27 24 21 20 21 22 21 19 17 16 15 16 17 18 19 19 17 17 18 18 19 19 20 19 17 15 14 14 14 14 14 15 15 16 16 17 16 16 16 16 15 15 15 16 18 20 21 23 23 22 22 24 27 29 29 29 30 31 32 33 34 34 34 34
41 41 40 39 38 37 36 35 35 36 36 37 38 38 38 39 39 38 38 36 32 28 24 21 20 20 20 20 19 18 16 16 17 18 18 19 18 17 16 17 18 20 21 21 21 19 17 16 15 15 15 15 15 16 16 17 17 16 16 16 17 17 17 17 17 17 18 19 20 20 20 20 21 24 27 28 28 28 28 29 30 31 32 32 32
40 40 39 39 38 36 36 35 35 34 35 35 36 36 37 37 37 37 37 36 34 31 26 22 20 19 19 19 18 17 17 16 17 18 18 18 17 16 16 17 18 20 21 22 22 22 20 19 18 17 17 16 16 16 17 17 18 17 17 17 17 17 18 18 18 18 19 19 18 18 19 19 20 22 24 26 27 28 28 29 30 31 32 32 32
39 39 39 38 37 36 35 35 34 34 34 34 34 35 35 35 36 36 36 36 35 33 29 25 21 19 18 18 18 17 17 17 17 18 17 17 16 16 16 17 18 20 22 23 24 24 23 22 20 20 19 19 18 18 18 18 19 19 18 18 18 18 18 18 18 19 19 19 19 19 18 19 19 20 22 24 26 27 29 30 32 33 33 34 34
38 38 38 38 37 36 35 34 34 33 33 33 33 33 34 34 35 35 35 36 35 34 32 29 24 20 18 18 17 17 16 17 18 18 18 17 16 16 16 17 18 20 21 23 24 25 25 24 23 22 22 21 21 20 19 19 19 19 19 19 19 18 18 18 18 19 20 20 20 20 20 20 20 20 21 22 23 25 28 30 32 34 35 36 36
38 37 37 37 37 36 35 34 33 33 32 32 32 32 33 33 33 34 34 34 35 34 34 32 29 24 20 18 18 17 17 17 17 18 18 18 17 17 17 17 18 19 21 22 24 25 25 25 25 24 24 24 23 22 21 21 20 20 19 19 19 19 19 18 18 18 19 20 20 20 20 21 21 21 21 22 22 23 24 26 29 32 34 36 36
37 37 36 36 36 35 34 34 33 32 31 31 31 31 32 32 32 32 33 33 33 33 33 33 31 28 24 20 19 18 18 18 18 18 18 18 18 18 18 18 19 20 21 22 24 25 25 26 26 26 25 25 25 24 23 22 21 20 19 19 18 19 19 18 18 18 18 19 20 20 20 21 22 22 22 22 22 22 22 22 24 26 29 32 34
37 36 35 35 35 35 34 33 33 32 31 30 30 30 30 31 31 31 32 32 32 32 32 32 32 30 28 25 21 20 19 19 19 19 19 19 19 19 18 19 20 20 21 22 23 24 25 26 27 27 27 26 26 25 25 24 23 22 20 19 18 17 18 18 18 18 17 17 18 19 19 20 21 22 23 23 23 22 21 20 20 20 22 25 28
37 36 35 34 34 34 34 33 32 32 31 30 29 29 29 29 30 30 30 31 31 31 31 32 31 31 30 28 25 22 21 21 21 21 21 21 21 21 20 20 20 21 22 23 23 24 24 25 25 26 26 26 26 26 25 25 24 23 22 20 18 17 17 17 17 17 17 17 16 17 18 19 20 21 22 22 23 22 21 20 18 18 17 18 20
37 36 34 33 33 33 33 33 32 31 31 30 29 28 28 28 28 29 29 30 30 31 31 31 31 31 30 29 27 25 23 22 22 23 23 23 23 23 23 22 22 22 22 23 24 24 24 24 24 24 24 24 24 24 25 25 24 24 22 21 18 17 16 16 16 17 17 16 16 16 16 17 18 19 20 20 21 21 20 20 19 18 18 17 17
37 35 34 33 33 33 33 33 32 31 31 30 29 28 28 28 28 28 28 28 29 30 31 31 31 31 31 30 29 28 26 24 23 23 24 25 25 26 26 25 25 24 24 24 24 24 24 24 24 24 23 23 23 23 23 24 24 23 22 21 19 18 17 16 16 16 16 16 16 16 16 16 17 17 18 19 19 18 18 18 18 18 18 18 18
37 36 34 33 32 32 32 32 32 31 31 30 29 28 28 27 27 27 27 27 28 29 29 30 31 31 31 31 31 30 28 26 24 24 24 26 27 28 28 28 27 27 26 26 25 25 25 25 25 25 24 23 23 23 23 24 24 23 23 22 21 19 18 17 17 17 16 16 17 17 17 17 17 18 18 18 18 18 18 17 17 17 17 17 18
37 36 34 33 32 31 31 32 31 31 31 30 30 29 28 27 27 27 26 26 27 27 28 29 30 30 31 31 32 31 31 29 27 25 24 25 27 28 29 30 30 29 29 28 27 26 26 26 26 25 25 25 24 24 24 24 24 24 23 23 22 21 20 20 20 19 18 18 17 17 18 18 18 19 19 19 19 19 18 18 17 17 17 17 17
37 36 34 33 31 31 31 31 31 31 30 30 30 29 28 27 27 27 27 26 26 27 27 28 29 30 30 31 31 32 32 32 31 29 27 25 25 27 29 30 31 31 31 30 30 29 28 27 27 27 26 26 26 26 26 26 25 25 24 24 23 23 22 22 22 21 21 20 20 19 19 19 19 20 20 19 19 19 19 19 18 18 18 18 18
37 35 34 33 31 31 30 31 31 31 30 30 29 29 29 28 27 27 27 27 27 27 27 28 28 29 30 31 31 32 32 33 33 32 31 29 27 26 27 28 30 32 32 32 31 31 30 29 28 28 28 28 28 27 27 27 27 26 26 25 25 24 24 24 24 23 23 22 22 22 22 22 21 21 21 21 21 21 20 20 20 19 19 19 18
37 35 34 33 32 31 30 30 31 31 30 30 29 29 29 29 28 28 28 27 27 27 27 28 28 29 29 30 31 32 32 33 34 34 33 32 30 28 27 27 28 30 32 33 33 33 32 31 31 30 29 29 29 29 29 29 29 28 28 27 26 26 26 25 25 25 25 24 24 24 24 24 24 24 23 23 23 22 22 21 20 20 20 20 19
Wind_Direction
7 5 3 359 356 353 351 349 347 348 348 346 343 341 342 343 344 344 343 342 339 335 329 320 309 294 278 267 259 255 254 256 257 259 264 268 269 269 266 261 255 250 247 245 243 241 240 239 239 240 240 240 240 240 240 240 240 240 241 242 242 243 243 242 242 240 240 241 241 241 241 241 241 240 240 241 242 242 243 243 243 243 243 242 242
6 6 5 4 3 1 360 358 356 355 353 351 348 346 346 347 346 348 349 349 348 345 340 336 329 315 295 277 264 258 256 257 259 263 268 273 274 274 271 267 262 256 251 247 245 242 240 239 238 238 239 239 240 240 241 240 240 240 241 241 242 243 243 244 243 242 241 241 241 241 241 241 241 241 240 240 241 241 242 243 243 243 243 243 243
4 4 4 4 4 4 3 1 360 359 357 355 355 353 352 351 350 351 353 354 355 353 350 346 342 335 320 300 281 269 262 260 263 269 275 280 282 281 278 272 266 260 255 251 248 245 242 239 238 238 238 238 238 239 240 240 241 241 241 241 242 242 243 244 244 243 242 242 243 242 242 242 242 241 241 240 240 240 241 242 243 243 243 243 243
1 2 2 3 3 3 3 2 1 1 359 358 358 358 357 355 354 354 356 357 358 359 358 355 351 346 338 325 307 288 275 271 272 277 283 288 289 289 287 282 273 265 258 253 250 248 245 242 240 238 238 237 237 237 238 239 240 241 241 241 242 242 243 244 245 244 244 243 243 244 244 243 243 242 241 241 241 241 241 241 242 242 242 242 243
356 358 359 0 1 1 1 1 1 1 1 360 359 359 360 359 358 358 359 359 359 360 1 1 360 357 352 344 331 312 296 286 283 284 286 288 289 289 290 289 283 272 262 253 248 246 244 242 241 240 239 238 237 237 237 238 238 239 240 241 242 242 243 244 245 245 245 244 244 244 245 245 244 244 243 242 241 241 241 241 241 241 242 242 242
349 353 356 357 358 358 359 359 360 360 0 360 359 360 1 1 1 1 2 2 0 360 1 2 3 2 360 355 346 332 316 301 294 290 288 286 285 283 281 279 277 273 267 258 250 245 241 239 238 238 237 237 236 236 236 236 237 238 239 240 241 242 242 243 244 245 245 245 245 245 245 246 246 245 245 244 243 242 242 242 242 242 242 242 241
342 344 348 352 354 355 355 356 356 357 358 359 359 359 360 1 2 4 4 4 4 2 360 360 1 0 359 357 352 343 330 317 306 297 290 284 279 275 270 264 260 257 257 256 251 245 240 237 235 234 233 233 233 233 234 234 235 236 237 238 239 240 241 242 243 244 244 245 245 245 246 246 246 246 246 246 245 244 244 244 244 243 243 242 242
340 338 339 343 347 350 351 352 353 353 354 356 357 358 358 358 360 2 4 5 6 5 2 359 358 357 354 352 350 345 339 329 319 308 298 288 280 274 266 256 248 241 236 235 236 234 232 231 231 230 230 230 230 231 231 232 232 233 234 235 237 238 239 240 241 242 243 243 244 244 245 245 246 246 247 246 246 246 246 246 246 245 245 244 243
339 337 335 335 337 341 345 347 349 350 351 352 353 355 356 356 357 358 360 2 4 4 3 0 357 356 352 348 344 340 337 332 325 317 308 297 286 277 268 257 245 236 228 221 218 215 214 214 216 218 221 223 225 227 228 229 229 230 231 233 234 236 237 239 240 241 242 242 243 243 244 244 245 246 246 247 247 247 247 247 247 246 246 246 245
336 336 335 334 333 334 336 340 342 345 346 348 349 351 352 354 355 356 356 357 359 1 1 360 357 355 353 349 343 337 331 328 324 318 311 303 294 283 271 260 246 236 230 223 217 212 209 208 206 206 207 209 212 215 219 222 224 226 228 231 232 234 236 237 238 240 240 241 242 242 243 244 245 245 246 246 247 247 247 247 247 247 247 246 246
333 332 333 333 333 332 332 333 335 338 340 342 344 346 348 350 352 354 355 355 356 357 357 357 356 354 352 350 347 341 332 324 319 317 311 305 298 290 279 266 252 240 234 230 224 218 215 213 210 209 209 208 207 207 209 213 216 219 223 227 229 231 234 235 237 238 239 240 241 242 242 243 244 245 245 246 246 246 246 246 247 247 247 246 246
332 330 329 329 330 331 331 331 331 332 334 336 338 340 343 345 347 349 351 353 354 355 355 355 355 354 352 349 347 346 341 331 320 314 310 306 300 293 285 274 262 250 241 237 234 229 225 222 221 219 217 216 215 213 213 214 216 218 221 224 227 229 231 233 235 237 239 239 240 241 242 243 243 244 244 245 245 244 245 245 246 246 246 246 245
336 330 327 325 325 326 327 329 330 330 329 330 331 334 336 340 344 346 348 351 353 355 355 354 354 355 353 350 346 345 347 344 335 322 311 305 300 295 288 278 269 259 249 241 238 237 234 231 230 229 227 225 224 222 220 219 220 222 223 226 228 231 233 233 234 236 238 238 238 240 241 241 242 242 243 243 243 243 243 243 244 245 245 245 244
342 335 328 324 322 321 321 323 325 327 327 326 326 328 330 333 338 343 346 348 351 353 355 356 356 356 354 352 349 346 346 349 348 341 329 314 301 294 288 280 271 263 255 246 240 239 239 237 235 233 231 229 229 228 226 226 227 228 230 230 232 234 236 237 237 238 239 239 239 239 240 241 241 241 242 242 242 242 242 242 242 243 244 244 243
347 342 334 327 321 319 317 317 318 320 322 322 323 323 324 325 330 336 340 343 346 348 351 354 356 357 356 353 350 348 346 346 348 348 346 336 320 303 291 283 274 266 259 252 245 240 238 238 236 234 231 229 229 230 230 231 232 233 235 234 234 234 236 238 239 240 241 241 241 240 240 240 240 239 240 241 241 241 241 241 241 242 243 243 243
352 347 341 333 325 320 316 315 314 314 315 317 318 320 320 319 321 325 330 334 337 339 343 348 351 354 355 353 350 349 348 346 344 343 345 345 340 327 307 290 279 271 263 257 251 245 241 238 236 234 233 232 232 232 232 233 234 234 235 234 234 235 237 239 241 242 243 243 242 241 241 241 241 239 240 242 241 240 241 242 242 242 243 243 243
356 352 346 340 332 324 318 315 313 311 311 311 311 313 315 316 315 316 318 322 326 329 333 337 342 347 351 351 348 346 347 348 347 342 338 337 339 339 330 311 290 277 268 262 257 252 247 243 241 238 236 235 235 235 236 236 237 237 237 237 237 237 238 241 242 243 244 244 243 242 242 242 242 241 241 243 243 242 243 244 245 245 245 244 244
359 356 352 346 339 331 323 317 314 312 310 309 308 307 308 310 311 311 311 313 316 319 323 327 331 336 342 345 344 342 341 342 345 344 340 337 334 335 336 332 317 293 276 266 260 257 253 250 248 246 244 242 241 241 241 241 242 243 243 243 243 242 242 242 242 242 243 243 242 243 243 243 244 243 243 243 243 243 243 245 246 248 247 246 246
1 359 356 352 346 339 331 322 315 313 311 310 308 305 303 303 304 305 306 307 309 311 314 318 322 325 330 335 339 339 337 334 332 333 334 335 334 332 333 335 333 322 300 279 267 261 257 255 253 251 250 249 248 247 247 247 247 248 248 248 247 247 246 245 243 242 242 242 242 242 242 242 243 243 243 244 244 244 244 245 247 249 249 249 248
2 1 359 355 351 347 340 331 320 314 312 311 310 307 303 302 301 301 300 301 303 305 307 310 313 317 320 324 330 334 334 331 326 323 321 321 321 320 319 319 319 320 316 304 287 273 264 259 256 254 253 252 252 251 251 251 250 250 250 249 248 248 248 247 246 246 245 244 243 242 241 240 240 241 241 242 243 245 246 246 248 250 250 250 251
2 2 0 358 355 351 347 340 330 320 313 311 311 310 306 304 302 301 299 298 298 299 301 304 306 309 312 315 319 324 328 328 325 321 319 317 316 312 308 305 302 301 300 298 295 289 281 273 265 260 257 255 254 253 252 251 250 249 249 249 247 247 247 247 246 246 246 244 243 241 240 239 239 240 241 242 244 246 248 249 250 251 251 251 252
1 2 2 360 357 354 351 347 339 329 319 312 311 311 310 307 305 303 301 300 298 296 296 298 300 301 303 306 310 315 319 321 321 318 315 315 315 313 308 303 299 295 292 290 287 284 282 281 278 273 268 264 261 258 255 252 251 249 248 248 247 246 245 246 246 246 246 245 244 242 240 239 239 241 242 244 245 247 248 249 249 250 250 251 251
360 1 2 1 359 356 353 351 346 338 327 317 311 310 311 311 309 307 305 303 301 299 297 295 295 296 297 298 301 306 310 313 315 313 310 307 308 309 307 304 300 296 292 289 287 283 279 277 276 275 273 270 267 265 263 259 255 251 248 246 246 246 245 245 246 246 246 245 244 242 240 240 240 241 243 244 245 246 247 247 247 247 248 249 250
358 0 1 2 1 358 356 353 351 346 338 326 314 309 309 312 313 311 309 307 305 303 301 299 297 295 295 295 296 298 301 305 308 308 304 300 300 301 301 301 300 298 295 293 290 287 283 279 276 274 272 270 267 265 264 264 262 258 252 248 247 246 245 245 246 246 246 245 244 243 241 241 240 240 241 242 243 244 245 245 245 246 247 248 249
357 359 1 2 1 360 358 356 354 351 347 338 324 312 307 308 312 314 313 311 309 306 303 302 301 299 297 296 296 296 296 297 301 303 298 292 292 294 294 294 295 295 295 295 293 290 288 284 280 277 274 272 268 265 262 261 260 260 258 255 252 249 247 246 245 245 244 243 243 242 241 240 239 238 238 240 241 242 243 243 243 244 246 247 248
355 357 359 1 1 1 359 357 356 354 352 348 338 324 311 305 306 311 314 314 314 312 308 305 303 301 300 299 298 297 296 294 296 297 292 284 284 288 289 289 289 289 291 292 293 292 291 289 286 283 280 276 272 268 264 260 258 258 258 258 257 254 251 248 246 245 243 241 240 240 241 240 238 237 238 240 241 241 241 241 241 242 243 245 246
353 355 358 360 1 1 0 359 357 356 355 352 348 339 325 310 302 303 308 313 316 317 315 310 305 302 302 302 301 300 299 296 295 293 287 279 278 281 284 284 285 285 286 287 290 293 293 291 289 287 285 282 278 273 267 261 257 255 255 257 258 257 255 252 249 246 244 242 239 238 240 241 241 241 242 243 243 242 241 241 240 240 241 243 245
351 353 356 358 359 1 1 0 359 358 357 355 352 347 339 325 310 301 300 305 311 316 319 317 311 305 301 300 300 300 299 298 295 290 283 277 275 276 278 280 282 283 283 284 288 292 294 293 292 290 288 286 283 279 272 264 257 253 253 254 256 257 256 254 252 250 248 246 244 241 240 240 241 242 243 244 245 245 244 243 242 241 241 243 245
348 351 354 356 358 360 1 1 360 359 358 357 355 352 348 339 326 311 301 299 303 310 316 319 317 310 303 299 297 296 295 295 294 289 282 276 274 273 273 274 277 279 280 282 287 291 294 294 294 293 291 289 288 286 280 270 259 252 249 250 253 256 256 256 254 251 249 248 247 246 244 243 242 241 241 243 244 245 245 245 244 244 244 244 245
346 349 351 353 356 358 0 1 0 359 358 358 357 355 353 349 340 325 311 301 300 304 309 315 318 314 306 298 295 294 292 292 291 288 283 277 274 272 271 270 272 274 275 278 283 288 291 293 294 294 294 291 291 290 286 277 264 253 248 247 250 252 254 255 254 253 252 251 250 249 248 247 245 243 242 242 242 244 244 244 244 244 244 244 245
345 347 349 351 353 356 359 0 1 360 359 358 357 356 355 354 351 343 327 310 301 301 305 310 315 316 309 299 294 293 292 289 286 283 281 278 275 272 269 267 268 270 272 275 280 285 289 292 292 292 293 292 290 289 286 279 271 261 255 252 251 251 251 251 251 252 252 253 253 253 252 251 249 248 246 244 242 242 242 243 243 244 244 245 245
344 345 347 349 351 354 357 359 360 360 359 359 358 357 355 354 354 352 346 331 311 302 304 308 313 316 313 303 294 292 291 288 283 279 277 276 276 273 268 263 262 265 268 271 277 284 288 290 288 285 284 283 281 281 281 279 275 270 266 263 260 256 253 250 249 250 251 253 254 255 255 253 250 248 247 245 242 239 239 241 243 245 245 245 245
343 343 345 347 349 351 354 357 359 360 359 359 358 357 356 354 352 352 351 347 335 316 309 311 315 317 316 308 299 294 290 286 282 279 277 276 274 272 267 260 257 259 263 267 274 280 284 286 285 281 278 275 272 271 272 273 273 272 270 269 267 264 259 254 249 248 250 252 255 257 256 254 250 247 246 244 241 238 237 239 241 244 245 246 246
343 343 343 345 346 349 352 355 358 359 359 359 359 358 357 355 352 351 349 348 344 335 323 317 317 318 317 312 304 297 291 285 280 280 281 280 276 270 264 257 253 254 258 263 269 275 278 281 283 281 278 275 272 271 270 270 271 271 270 268 267 265 264 260 254 250 250 252 256 259 259 256 251 247 245 242 239 236 235 236 238 241 244 245 246
343 342 342 343 344 346 349 353 356 357 358 359 360 359 358 356 354 352 349 347 343 338 330 324 321 320 318 313 307 301 293 285 282 282 284 284 280 270 260 253 249 250 254 258 263 267 271 275 279 281 282 280 277 275 273 272 271 271 270 269 266 263 262 261 259 256 254 254 256 259 260 258 253 247 242 240 238 237 236 237 238 240 243 244 245
342 342 342 342 342 344 347 350 353 355 357 358 360 360 359 358 356 353 351 349 345 339 331 323 320 321 319 315 310 305 297 289 288 289 289 288 283 272 259 251 248 247 250 254 256 259 262 266 271 276 281 284 284 282 278 274 271 269 268 267 265 263 260 259 258 258 258 257 258 258 259 259 255 247 241 238 238 237 237 237 239 240 242 243 243
340 342 342 341 341 342 344 347 351 353 355 357 359 360 360 359 357 355 353 351 348 343 335 325 318 318 318 314 309 304 299 293 292 294 294 291 285 272 258 250 248 247 249 252 254 255 258 262 265 270 276 280 283 285 284 280 275 269 266 264 262 261 259 257 255 255 257 257 258 257 258 257 254 248 242 239 238 238 237 237 238 239 240 241 242
339 341 342 341 341 341 343 345 348 351 353 355 357 359 360 360 358 357 355 353 350 347 342 332 321 316 316 314 308 302 297 293 292 293 294 292 286 274 258 249 247 248 250 252 254 256 259 261 264 268 272 275 279 282 285 285 282 275 267 262 259 258 258 257 255 254 253 254 254 253 253 253 253 250 246 243 241 241 241 240 240 241 242 243 243
336 339 341 341 340 340 341 343 345 347 350 353 355 357 359 359 359 358 356 355 353 350 347 340 330 319 314 313 309 301 293 291 290 290 290 290 288 278 264 253 249 249 251 253 256 257 260 262 265 268 271 274 277 279 282 284 284 280 272 264 259 256 255 256 256 255 254 253 251 249 248 247 248 250 251 250 249 247 247 246 245 245 246 246 246
332 336 339 340 340 340 341 341 343 345 347 350 352 355 357 359 359 358 357 356 354 352 350 346 340 329 318 312 308 301 291 286 287 288 288 288 288 283 273 262 255 254 255 257 258 259 260 262 264 267 270 273 276 278 279 279 280 279 274 268 262 257 255 255 255 256 256 255 253 250 247 245 243 244 246 248 250 251 251 251 251 250 249 249 249
329 333 336 339 340 340 340 341 341 342 344 347 349 352 355 357 358 358 357 356 354 352 351 348 345 338 327 316 308 302 293 285 282 284 286 286 286 284 280 272 265 261 260 261 262 263 264 264 265 267 270 272 274 276 277 277 275 274 271 266 262 258 255 254 254 255 255 255 254 252 250 247 244 242 242 243 245 249 252 253 254 253 252 251 251
326 329 333 337 339 340 340 340 340 341 342 344 346 349 352 354 356 357 357 356 354 353 351 349 346 343 336 325 312 304 296 288 283 282 283 284 283 282 281 279 274 269 267 266 266 266 267 267 268 268 269 271 272 273 274 273 271 269 266 262 258 255 253 252 251 251 253 253 253 251 250 249 246 244 244 244 245 248 252 255 256 255 253 251 249
323 326 330 334 337 339 339 340 340 340 340 341 343 346 349 351 353 354 355 354 354 353 351 349 347 344 340 333 322 309 300 292 286 282 280 281 281 280 278 278 278 277 274 272 271 270 269 269 269 269 268 269 270 270 269 268 266 264 262 259 256 253 250 249 248 248 249 250 251 250 249 248 246 245 244 244 245 247 250 253 255 256 254 251 247
321 323 327 331 335 338 338 339 340 340 339 339 340 343 345 348 350 352 352 352 352 352 351 350 348 345 342 338 330 319 307 297 289 284 280 278 279 278 277 277 277 277 277 276 275 275 274 273 272 271 269 267 267 266 265 264 262 260 258 257 255 253 250 248 247 245 244 244 246 248 249 248 246 243 241 240 241 242 244 247 250 251 251 249 246
319 320 323 327 332 335 337 338 339 339 339 339 339 340 342 345 347 349 350 350 350 350 350 349 348 346 343 340 335 328 317 305 293 286 282 278 277 277 277 277 277 276 276 276 276 276 276 276 276 275 273 269 266 264 261 259 258 257 256 255 255 255 254 252 249 247 244 242 241 244 248 249 247 244 240 237 236 237 238 240 242 244 245 244 243
318 318 320 324 328 332 334 336 337 338 339 339 339 339 340 341 343 345 347 348 348 348 348 347 346 345 343 341 338 333 327 316 303 292 284 279 277 275 275 276 277 277 277 276 275 274 274 275 276 277 275 272 268 264 261 257 255 254 254 254 255 255 255 255 254 252 249 247 243 241 242 244 245 244 242 239 236 235 235 235 236 239 240 240 240
316 316 317 320 324 328 331 334 336 337 338 339 339 339 339 339 340 341 343 345 345 345 345 345 344 343 342 341 339 336 332 326 316 303 291 282 278 275 274 274 274 275 277 277 276 274 273 273 273 274 274 272 268 264 261 258 255 254 253 254 255 254 254 254 253 252 251 251 249 246 243 242 241 240 239 238 237 236 235 234 233 234 236 237 238
315 315 315 317 320 325 328 331 333 335 337 339 339 339 338 337 337 338 340 342 343 343 343 342 342 341 340 339 338 336 334 331 325 317 304 291 282 276 274 273 272 272 274 275 276 275 273 272 271 270 270 269 267 264 262 259 257 256 254 253 253 253 252 251 251 250 249 248 248 248 246 245 243 242 240 238 237 237 237 236 236 236 236 237 237
314 313 313 314 317 321 325 328 330 333 335 337 339 339 338 336 335 335 336 338 340 341 341 340 340 339 338 337 336 335 334 332 329 325 318 307 294 283 276 272 271 270 270 271 272 273 273 272 271 269 267 267 267 265 263 260 258 256 256 254 253 251 250 250 250 250 250 248 247 246 244 243 242 242 242 241 239 239 239 238 238 238 238 238 238
313 312 311 312 314 317 321 324 327 330 332 335 338 339 338 337 335 333 333 335 337 338 339 338 338 338 337 336 335 334 332 331 330 327 324 318 310 298 287 278 272 270 268 268 268 269 270 270 270 269 267 265 264 264 263 261 259 256 255 254 253 251 250 249 249 249 250 250 249 248 246 243 241 239 239 240 240 240 239 239 239 239 240 240 240
313 311 310 310 312 314 317 321 324 327 330 333 336 338 338 337 335 333 331 331 333 335 336 336 336 336 335 334 333 332 331 330 329 327 325 323 318 310 301 290 280 273 270 268 267 266 266 266 267 267 267 265 263 262 261 261 260 258 254 253 252 251 250 249 249 249 249 249 249 249 249 247 245 243 241 240 240 241 241 242 243 244 244 244 245
Height
5380 5377 5373 5370 5367 5364 5361 5357 5354 5350 5347 5344 5341 5338 5334 5330 5327 5323 5318 5314 5309 5305 5301 5297 5295 5293 5293 5294 5295 5297 5298 5299 5300 5301 5301 5301 5300 5299 5297 5296 5296 5298 5300 5303 5307 5311 5316 5323 5329 5336 5343 5350 5358 5366 5374 5380 5386 5391 5397 5402 5408 5413 5419 5424 5432 5444 5452 5453 5460 5469 5474 5478 5484 5491 5498 5502 5504 5508 5512 5518 5522 5527 5533 5539 5544
5381 5377 5374 5370 5367 5364 5360 5357 5353 5349 5346 5343 5340 5336 5333 5329 5325 5321 5316 5312 5307 5303 5299 5295 5293 5291 5290 5291 5292 5293 5294 5295 5296 5297 5297 5296 5295 5294 5293 5292 5291 5292 5293 5295 5297 5300 5304 5309 5315 5321 5328 5336 5345 5353 5360 5367 5373 5378 5384 5390 5396 5402 5407 5412 5419 5430 5438 5441 5447 5455 5460 5464 5470 5478 5485 5489 5493 5496 5501 5506 5512 5517 5522 5527 5533
5382 5378 5374 5370 5367 5363 5360 5357 5353 5349 5346 5342 5339 5335 5331 5327 5323 5319 5315 5311 5306 5302 5298 5295 5292 5290 5289 5289 5290 5291 5291 5292 5292 5293 5293 5292 5291 5290 5289 5288 5287 5287 5287 5288 5290 5292 5295 5299 5303 5309 5314 5321 5331 5339 5346 5353 5359 5365 5371 5378 5384 5390 5395 5400 5406 5415 5424 5429 5435 5441 5446 5451 5457 5465 5471 5474 5480 5485 5490 5495 5500 5505 5511 5516 5521
5382 5378 5375 5370 5367 5363 5360 5356 5353 5349 5345 5342 5338 5334 5330 5327 5322 5318 5314 5310 5306 5302 5298 5295 5292 5290 5289 5288 5288 5289 5289 5289 5289 5289 5289 5288 5288 5287 5286 5285 5284 5283 5283 5283 5284 5286 5288 5291 5295 5299 5303 5310 5318 5325 5331 5338 5344 5351 5359 5365 5371 5378 5384 5387 5393 5401 5409 5416 5423 5428 5433 5437 5443 5450 5455 5460 5467 5473 5479 5484 5488 5493 5499 5505 5510
5382 5378 5374 5370 5366 5363 5359 5356 5352 5349 5345 5341 5337 5334 5330 5326 5322 5318 5314 5310 5306 5302 5299 5295 5293 5290 5289 5288 5287 5287 5287 5287 5287 5286 5286 5285 5285 5284 5283 5282 5281 5280 5280 5279 5280 5281 5283 5285 5288 5291 5295 5301 5307 5313 5318 5324 5331 5338 5346 5352 5358 5365 5370 5374 5379 5387 5394 5403 5412 5417 5419 5422 5428 5435 5440 5446 5454 5461 5466 5471 5475 5481 5487 5493 5499
5382 5378 5374 5370 5366 5362 5359 5355 5352 5348 5345 5341 5338 5334 5330 5326 5322 5318 5314 5310 5306 5303 5299 5296 5293 5291 5289 5288 5287 5286 5285 5285 5284 5284 5284 5283 5282 5282 5281 5281 5280 5279 5278 5277 5277 5277 5279 5281 5283 5285 5289 5293 5298 5302 5307 5313 5319 5326 5334 5340 5345 5351 5357 5361 5366 5373 5381 5390 5399 5404 5405 5408 5415 5421 5426 5432 5441 5448 5453 5458 5463 5469 5475 5480 5486
5381 5377 5374 5370 5366 5362 5358 5355 5351 5348 5345 5341 5338 5334 5330 5326 5322 5318 5314 5310 5307 5303 5300 5297 5294 5292 5290 5288 5287 5285 5284 5283 5283 5282 5281 5281 5280 5280 5279 5279 5278 5278 5277 5276 5276 5276 5277 5277 5279 5281 5284 5287 5291 5294 5299 5304 5309 5316 5322 5328 5333 5338 5344 5349 5354 5360 5368 5377 5385 5390 5393 5397 5403 5407 5412 5419 5427 5434 5440 5446 5451 5456 5461 5466 5472
5379 5376 5372 5369 5365 5362 5358 5354 5351 5347 5344 5341 5337 5334 5330 5326 5323 5318 5315 5311 5307 5304 5301 5297 5295 5292 5290 5288 5286 5285 5283 5282 5281 5280 5280 5279 5279 5278 5278 5278 5277 5277 5276 5276 5276 5276 5276 5277 5278 5279 5281 5283 5286 5289 5293 5297 5302 5307 5312 5317 5321 5327 5332 5337 5342 5349 5356 5364 5371 5377 5380 5384 5388 5393 5399 5405 5414 5424 5430 5432 5435 5441 5446 5451 5458
5377 5374 5371 5367 5364 5360 5357 5354 5350 5347 5344 5340 5337 5334 5330 5327 5323 5319 5315 5312 5308 5305 5301 5298 5295 5292 5290 5288 5286 5284 5283 5281 5280 5279 5278 5278 5277 5277 5276 5276 5276 5276 5276 5276 5276 5276 5276 5277 5277 5278 5280 5282 5284 5287 5290 5293 5297 5301 5305 5309 5313 5318 5323 5328 5333 5339 5345 5351 5358 5364 5367 5371 5375 5381 5387 5394 5404 5414 5416 5414 5419 5428 5431 5435 5442
5375 5372 5369 5366 5362 5359 5356 5353 5349 5346 5343 5340 5336 5333 5330 5327 5323 5319 5316 5312 5309 5305 5302 5299 5295 5292 5290 5287 5285 5283 5282 5280 5279 5278 5277 5276 5276 5275 5275 5275 5275 5275 5275 5275 5275 5275 5276 5276 5277 5278 5279 5281 5283 5285 5288 5291 5294 5297 5300 5303 5307 5311 5316 5320 5324 5329 5334 5340 5346 5351 5354 5359 5365 5370 5375 5383 5392 5399 5399 5399 5406 5413 5415 5420 5429
5373 5370 5367 5364 5360 5357 5354 5351 5348 5345 5342 5339 5336 5333 5330 5326 5323 5320 5316 5313 5309 5306 5302 5299 5296 5293 5289 5287 5285 5283 5281 5279 5278 5277 5275 5275 5274 5274 5273 5273 5273 5274 5274 5274 5274 5275 5275 5276 5277 5278 5279 5280 5282 5284 5286 5289 5292 5295 5297 5300 5303 5306 5310 5314 5317 5321 5325 5330 5336 5339 5342 5349 5355 5359 5363 5369 5376 5381 5384 5387 5391 5396 5399 5406 5416
5371 5368 5365 5362 5358 5355 5352 5349 5346 5343 5340 5337 5335 5332 5329 5326 5323 5319 5316 5313 5309 5306 5303 5299 5296 5293 5289 5286 5284 5282 5280 5278 5277 5276 5274 5273 5273 5272 5272 5272 5272 5272 5273 5273 5274 5274 5275 5276 5276 5277 5279 5280 5281 5283 5285 5287 5289 5292 5294 5297 5300 5303 5306 5309 5312 5315 5319 5323 5327 5330 5334 5339 5344 5347 5351 5356 5361 5366 5371 5373 5375 5380 5385 5391 5401
5368 5365 5362 5359 5356 5353 5350 5347 5344 5342 5339 5336 5333 5330 5327 5325 5322 5319 5316 5313 5309 5306 5303 5300 5296 5293 5289 5286 5284 5282 5280 5278 5276 5275 5273 5272 5271 5271 5270 5270 5270 5270 5271 5272 5272 5273 5274 5275 5276 5277 5278 5279 5281 5282 5284 5286 5287 5289 5292 5294 5297 5299 5302 5305 5308 5310 5313 5317 5320 5324 5327 5331 5335 5338 5341 5344 5348 5352 5357 5360 5362 5365 5369 5376 5385
5366 5363 5359 5356 5353 5350 5348 5345 5342 5339 5337 5334 5331 5328 5326 5323 5320 5318 5315 5312 5309 5306 5303 5300 5296 5293 5290 5287 5284 5281 5279 5278 5276 5274 5272 5271 5270 5270 5269 5269 5269 5269 5269 5270 5271 5272 5273 5274 5275 5276 5277 5278 5280 5281 5283 5285 5286 5288 5290 5292 5295 5297 5299 5302 5304 5307 5309 5312 5316 5319 5321 5324 5327 5330 5333 5335 5338 5341 5346 5349 5350 5352 5356 5362 5370
5365 5360 5357 5354 5350 5348 5345 5342 5339 5337 5334 5332 5329 5326 5324 5321 5319 5316 5314 5311 5309 5306 5303 5300 5297 5293 5290 5287 5284 5282 5279 5277 5276 5274 5272 5270 5269 5268 5268 5267 5267 5267 5267 5268 5269 5270 5271 5272 5273 5274 5275 5276 5278 5280 5281 5283 5285 5286 5288 5291 5293 5294 5296 5298 5300 5303 5305 5308 5311 5314 5316 5318 5320 5324 5325 5326 5329 5333 5336 5338 5341 5343 5347 5351 5357
5363 5359 5355 5351 5348 5345 5342 5339 5336 5333 5331 5329 5326 5324 5322 5319 5317 5314 5312 5310 5308 5305 5302 5300 5297 5294 5291 5288 5285 5282 5280 5277 5275 5274 5272 5270 5269 5267 5266 5266 5266 5266 5266 5266 5267 5268 5269 5270 5271 5272 5273 5274 5275 5277 5279 5280 5282 5284 5286 5288 5290 5291 5293 5295 5297 5299 5301 5303 5306 5308 5310 5312 5314 5317 5319 5319 5322 5326 5328 5330 5333 5336 5339 5342 5346
5362 5357 5353 5349 5345 5341 5339 5336 5333 5330 5328 5326 5323 5321 5319 5317 5314 5312 5310 5308 5306 5304 5301 5299 5296 5293 5291 5288 5285 5282 5280 5277 5275 5273 5272 5270 5268 5267 5266 5265 5264 5264 5264 5265 5265 5266 5266 5267 5268 5269 5271 5272 5273 5274 5275 5277 5279 5281 5282 5284 5286 5288 5290 5291 5293 5295 5297 5299 5301 5303 5305 5306 5308 5311 5313 5314 5317 5320 5321 5324 5327 5328 5331 5334 5337
5361 5356 5351 5347 5342 5339 5335 5332 5329 5327 5324 5322 5320 5318 5315 5313 5312 5309 5307 5305 5303 5301 5299 5297 5295 5293 5290 5288 5285 5283 5280 5277 5275 5273 5271 5270 5268 5266 5265 5264 5263 5263 5262 5262 5263 5263 5264 5265 5266 5267 5268 5269 5270 5271 5272 5274 5276 5277 5279 5280 5282 5284 5286 5287 5288 5290 5291 5293 5295 5297 5299 5301 5303 5305 5307 5309 5311 5313 5316 5319 5320 5321 5324 5327 5329
5360 5355 5349 5345 5340 5336 5332 5329 5326 5323 5321 5318 5316 5314 5312 5309 5308 5306 5304 5302 5300 5299 5297 5295 5293 5291 5289 5287 5285 5282 5280 5277 5275 5273 5271 5269 5268 5266 5265 5264 5263 5262 5261 5261 5261 5261 5261 5262 5263 5264 5265 5265 5267 5268 5269 5271 5272 5274 5275 5276 5278 5280 5281 5281 5283 5284 5286 5288 5290 5292 5294 5296 5298 5300 5302 5303 5305 5307 5310 5313 5314 5315 5317 5320 5320
5360 5354 5348 5343 5338 5333 5329 5326 5322 5320 5317 5315 5313 5311 5308 5305 5304 5302 5301 5299 5297 5296 5294 5292 5290 5289 5287 5285 5283 5281 5279 5276 5274 5272 5271 5269 5267 5266 5264 5263 5262 5262 5261 5260 5260 5259 5259 5259 5260 5260 5261 5262 5263 5264 5265 5266 5268 5269 5271 5272 5274 5275 5275 5276 5278 5279 5281 5283 5285 5287 5289 5291 5292 5294 5296 5298 5300 5302 5304 5306 5308 5309 5311 5312 5313
5359 5353 5347 5341 5336 5331 5327 5323 5319 5316 5314 5311 5309 5307 5305 5302 5300 5298 5296 5295 5294 5292 5291 5289 5287 5286 5284 5283 5281 5279 5277 5275 5273 5271 5269 5268 5266 5265 5263 5262 5261 5261 5260 5259 5259 5258 5258 5258 5258 5258 5258 5259 5259 5260 5261 5262 5263 5265 5266 5267 5269 5269 5270 5271 5273 5274 5276 5278 5279 5281 5283 5285 5287 5288 5291 5293 5295 5297 5298 5300 5302 5303 5304 5306 5307
5358 5352 5347 5341 5335 5330 5325 5320 5316 5313 5310 5307 5305 5303 5301 5299 5297 5294 5292 5291 5289 5288 5287 5286 5284 5282 5281 5280 5278 5277 5275 5273 5271 5269 5268 5266 5265 5264 5262 5261 5260 5259 5258 5258 5257 5257 5257 5256 5256 5256 5257 5257 5257 5257 5257 5258 5259 5260 5262 5263 5263 5264 5265 5267 5268 5269 5271 5273 5274 5276 5278 5280 5282 5284 5286 5288 5290 5292 5293 5295 5296 5297 5299 5300 5301
5358 5352 5346 5340 5334 5329 5323 5318 5314 5310 5307 5304 5301 5299 5297 5295 5293 5291 5289 5287 5285 5284 5282 5281 5280 5279 5277 5276 5275 5273 5272 5271 5269 5267 5266 5264 5263 5262 5261 5260 5259 5258 5257 5256 5256 5255 5255 5254 5254 5254 5254 5254 5254 5254 5254 5254 5255 5256 5257 5258 5258 5260 5261 5262 5263 5265 5266 5268 5270 5272 5274 5276 5278 5280 5282 5284 5285 5286 5287 5289 5290 5292 5293 5294 5295
5358 5352 5346 5340 5334 5328 5322 5317 5312 5308 5304 5300 5298 5295 5293 5291 5289 5287 5285 5283 5282 5280 5278 5277 5276 5274 5273 5272 5271 5270 5269 5267 5266 5265 5263 5262 5261 5260 5259 5258 5257 5256 5255 5255 5254 5253 5253 5253 5252 5252 5252 5252 5252 5252 5252 5252 5252 5252 5253 5253 5254 5255 5256 5258 5259 5260 5262 5264 5266 5268 5270 5272 5274 5276 5278 5279 5280 5281 5282 5284 5286 5287 5288 5289 5290
5357 5351 5345 5339 5333 5328 5322 5316 5311 5306 5302 5298 5294 5291 5289 5287 5285 5284 5282 5280 5278 5276 5275 5273 5271 5270 5269 5268 5267 5266 5265 5264 5263 5261 5260 5259 5258 5258 5257 5256 5255 5254 5254 5253 5252 5252 5251 5251 5250 5250 5249 5249 5249 5249 5249 5249 5250 5250 5250 5250 5250 5251 5252 5254 5255 5256 5258 5259 5261 5263 5265 5267 5269 5271 5272 5273 5274 5276 5278 5280 5281 5282 5283 5284 5285
5356 5351 5345 5339 5333 5327 5322 5316 5310 5304 5300 5296 5292 5289 5286 5283 5282 5280 5278 5276 5274 5272 5271 5269 5268 5266 5265 5264 5263 5262 5261 5260 5259 5258 5257 5256 5255 5255 5254 5254 5253 5252 5251 5251 5250 5249 5249 5248 5248 5247 5247 5246 5246 5246 5246 5246 5246 5247 5247 5247 5248 5248 5249 5250 5251 5252 5253 5254 5256 5258 5260 5262 5263 5265 5266 5267 5269 5271 5273 5275 5277 5278 5279 5279 5280
5355 5349 5343 5338 5333 5327 5322 5316 5309 5304 5298 5294 5290 5286 5283 5280 5278 5276 5275 5273 5271 5269 5267 5266 5264 5263 5261 5260 5259 5258 5257 5256 5255 5254 5254 5253 5252 5252 5252 5251 5251 5250 5249 5248 5248 5247 5246 5246 5245 5244 5244 5243 5243 5243 5242 5243 5243 5243 5244 5244 5245 5245 5245 5246 5247 5248 5249 5250 5251 5253 5255 5256 5258 5260 5261 5263 5265 5267 5269 5270 5272 5273 5274 5275 5276
5353 5348 5342 5337 5332 5327 5321 5316 5310 5303 5297 5292 5288 5284 5280 5277 5274 5272 5271 5270 5268 5266 5264 5263 5261 5259 5258 5256 5255 5254 5253 5252 5251 5251 5250 5250 5249 5249 5249 5248 5248 5247 5247 5246 5245 5244 5244 5243 5242 5241 5241 5240 5240 5239 5239 5239 5239 5240 5240 5241 5241 5242 5242 5243 5243 5244 5245 5246 5247 5249 5250 5251 5253 5255 5257 5258 5260 5262 5264 5266 5267 5268 5269 5270 5272
5351 5346 5341 5336 5331 5325 5320 5315 5309 5303 5297 5291 5286 5282 5278 5275 5271 5269 5267 5266 5264 5263 5262 5260 5258 5256 5254 5253 5252 5251 5250 5249 5248 5248 5247 5247 5247 5246 5246 5246 5245 5245 5244 5244 5243 5242 5241 5240 5240 5239 5238 5237 5236 5236 5235 5235 5236 5236 5237 5238 5238 5238 5239 5239 5240 5241 5242 5242 5243 5244 5246 5247 5249 5250 5252 5253 5255 5257 5259 5261 5262 5264 5265 5266 5268
5349 5344 5339 5334 5329 5324 5318 5313 5308 5303 5297 5290 5285 5280 5276 5273 5270 5266 5263 5261 5260 5259 5258 5257 5255 5253 5251 5249 5248 5248 5247 5246 5245 5244 5244 5244 5244 5243 5243 5243 5243 5242 5242 5241 5241 5240 5239 5238 5237 5236 5235 5235 5234 5233 5233 5232 5232 5233 5234 5234 5235 5235 5236 5236 5237 5238 5238 5239 5240 5240 5241 5243 5244 5245 5247 5248 5250 5252 5254 5255 5257 5258 5260 5261 5263
5347 5342 5337 5332 5327 5322 5317 5312 5307 5302 5296 5290 5284 5278 5273 5270 5267 5264 5261 5258 5256 5255 5254 5253 5251 5250 5248 5246 5244 5244 5243 5243 5242 5241 5241 5241 5241 5240 5240 5240 5240 5240 5239 5239 5238 5237 5236 5235 5235 5234 5233 5232 5232 5231 5230 5230 5230 5230 5231 5231 5232 5232 5233 5233 5234 5234 5235 5235 5236 5237 5238 5239 5240 5241 5242 5243 5245 5247 5248 5249 5251 5253 5254 5256 5258
5344 5340 5335 5330 5325 5320 5315 5310 5305 5300 5295 5289 5283 5277 5272 5267 5263 5261 5259 5256 5254 5252 5251 5249 5248 5246 5244 5243 5242 5241 5240 5240 5239 5238 5238 5238 5237 5237 5237 5237 5237 5237 5237 5236 5236 5235 5234 5233 5232 5231 5231 5230 5230 5229 5228 5228 5228 5228 5228 5228 5228 5229 5229 5230 5231 5231 5231 5232 5232 5233 5234 5235 5236 5236 5237 5239 5240 5241 5243 5244 5246 5247 5249 5251 5253
5342 5337 5333 5328 5324 5319 5314 5309 5304 5299 5294 5289 5283 5277 5272 5266 5261 5257 5254 5253 5251 5250 5248 5246 5244 5242 5241 5239 5239 5238 5237 5236 5236 5235 5235 5234 5234 5234 5234 5234 5234 5234 5234 5234 5233 5232 5231 5231 5230 5229 5229 5228 5227 5227 5227 5226 5226 5226 5225 5225 5225 5225 5226 5226 5227 5227 5228 5228 5229 5229 5230 5230 5231 5232 5233 5234 5236 5237 5238 5240 5241 5242 5244 5246 5248
5339 5335 5331 5326 5322 5317 5312 5307 5303 5298 5294 5289 5283 5277 5272 5266 5261 5256 5252 5248 5247 5246 5244 5243 5241 5239 5237 5236 5235 5235 5234 5234 5233 5232 5232 5231 5231 5230 5230 5231 5231 5231 5231 5231 5230 5230 5229 5228 5228 5227 5226 5226 5225 5225 5224 5224 5224 5223 5223 5223 5223 5223 5222 5223 5223 5224 5224 5224 5225 5225 5226 5226 5226 5227 5229 5230 5231 5232 5234 5235 5236 5238 5239 5241 5244
5336 5332 5329 5324 5320 5316 5311 5306 5301 5297 5293 5288 5283 5277 5272 5266 5262 5257 5252 5247 5244 5241 5240 5239 5238 5236 5234 5233 5232 5232 5231 5231 5230 5229 5229 5228 5227 5227 5227 5227 5228 5228 5228 5228 5228 5227 5227 5226 5225 5225 5224 5223 5223 5222 5222 5222 5221 5221 5221 5220 5220 5220 5220 5220 5220 5220 5220 5220 5221 5222 5222 5222 5222 5223 5225 5226 5227 5228 5230 5231 5232 5234 5235 5237 5239
5333 5329 5326 5322 5318 5313 5309 5304 5300 5295 5291 5287 5282 5277 5272 5266 5261 5257 5252 5248 5244 5240 5237 5236 5235 5233 5232 5230 5229 5228 5228 5227 5227 5226 5226 5225 5224 5224 5224 5224 5225 5225 5225 5225 5225 5225 5225 5224 5223 5223 5222 5221 5220 5220 5219 5219 5219 5218 5218 5218 5218 5217 5217 5217 5217 5217 5217 5217 5217 5218 5218 5219 5219 5219 5221 5222 5223 5225 5226 5227 5229 5230 5231 5233 5235
5329 5326 5323 5319 5315 5311 5307 5302 5298 5293 5289 5285 5281 5276 5271 5266 5262 5257 5252 5248 5243 5240 5236 5234 5232 5231 5229 5228 5226 5226 5225 5225 5224 5224 5223 5222 5221 5220 5220 5221 5222 5222 5222 5222 5222 5222 5222 5222 5221 5221 5220 5219 5218 5217 5217 5216 5216 5215 5215 5215 5215 5214 5214 5214 5214 5214 5214 5214 5214 5214 5215 5216 5216 5216 5217 5219 5220 5221 5223 5224 5225 5226 5228 5229 5230
5326 5322 5319 5316 5312 5308 5304 5300 5295 5291 5287 5283 5279 5275 5270 5265 5261 5257 5252 5247 5243 5239 5235 5232 5230 5229 5227 5226 5224 5223 5222 5222 5221 5221 5220 5219 5218 5218 5217 5218 5218 5219 5219 5219 5219 5219 5219 5219 5218 5218 5217 5217 5216 5215 5214 5213 5213 5212 5212 5212 5212 5211 5211 5211 5211 5212 5212 5211 5211 5211 5212 5212 5213 5213 5214 5215 5217 5218 5219 5220 5221 5223 5224 5225 5226
5322 5319 5316 5312 5309 5305 5301 5297 5293 5289 5285 5281 5277 5273 5269 5264 5260 5256 5251 5247 5242 5238 5234 5231 5228 5226 5225 5223 5222 5221 5220 5219 5219 5218 5218 5217 5216 5215 5215 5215 5215 5215 5216 5216 5216 5216 5216 5216 5215 5215 5215 5214 5213 5212 5212 5211 5210 5209 5209 5209 5209 5208 5208 5208 5208 5208 5209 5209 5209 5209 5209 5209 5210 5210 5211 5212 5213 5215 5216 5216 5217 5218 5219 5220 5221
5319 5315 5312 5309 5306 5302 5298 5294 5290 5286 5283 5279 5275 5271 5267 5262 5258 5254 5250 5246 5242 5237 5233 5230 5227 5224 5222 5221 5220 5219 5218 5217 5216 5216 5215 5214 5214 5213 5212 5212 5212 5212 5212 5212 5212 5212 5212 5212 5212 5212 5211 5211 5210 5210 5209 5208 5207 5206 5206 5205 5205 5205 5205 5205 5205 5205 5205 5206 5206 5206 5206 5207 5207 5207 5208 5209 5210 5211 5212 5212 5213 5214 5214 5215 5216
5315 5312 5308 5305 5302 5299 5295 5291 5288 5284 5280 5276 5273 5269 5265 5261 5257 5253 5249 5245 5241 5237 5233 5229 5225 5222 5220 5218 5217 5216 5215 5214 5214 5213 5212 5212 5211 5210 5210 5209 5209 5209 5209 5209 5209 5208 5208 5208 5208 5208 5208 5207 5207 5206 5206 5205 5204 5203 5203 5202 5202 5202 5202 5202 5202 5202 5202 5202 5203 5203 5203 5204 5204 5205 5205 5206 5206 5207 5207 5208 5208 5209 5209 5210 5211
5311 5308 5305 5301 5299 5295 5292 5289 5285 5281 5278 5274 5270 5266 5263 5259 5255 5251 5247 5244 5240 5236 5232 5228 5224 5221 5218 5216 5214 5213 5212 5211 5211 5210 5209 5209 5208 5207 5207 5207 5206 5206 5205 5205 5205 5204 5204 5204 5204 5204 5204 5203 5203 5203 5202 5202 5201 5200 5200 5199 5199 5199 5198 5198 5198 5199 5199 5199 5199 5200 5200 5200 5201 5201 5202 5202 5203 5203 5203 5204 5204 5204 5204 5205 5206
5306 5304 5301 5298 5295 5292 5289 5285 5282 5278 5275 5271 5268 5264 5260 5256 5253 5249 5245 5242 5239 5235 5231 5227 5224 5220 5217 5214 5212 5210 5209 5208 5207 5207 5206 5206 5205 5204 5204 5203 5203 5203 5202 5201 5201 5200 5200 5199 5199 5199 5199 5199 5199 5199 5198 5198 5197 5197 5196 5196 5196 5196 5195 5195 5195 5195 5195 5196 5196 5197 5197 5197 5198 5198 5199 5199 5199 5200 5200 5200 5200 5200 5200 5200 5201
5302 5299 5297 5294 5291 5288 5285 5282 5279 5275 5272 5269 5265 5262 5258 5254 5250 5247 5243 5240 5237 5233 5230 5226 5223 5219 5216 5213 5210 5208 5206 5205 5204 5203 5203 5202 5201 5201 5200 5200 5199 5199 5199 5198 5197 5197 5196 5195 5195 5194 5194 5194 5194 5194 5194 5194 5194 5193 5193 5193 5192 5192 5192 5192 5192 5192 5192 5193 5193 5193 5194 5194 5194 5195 5195 5196 5196 5197 5197 5197 5197 5197 5197 5197 5198
5297 5295 5292 5290 5287 5285 5282 5279 5276 5272 5269 5266 5262 5259 5255 5252 5248 5245 5241 5238 5235 5231 5228 5225 5221 5218 5215 5212 5208 5206 5204 5202 5200 5200 5199 5198 5198 5197 5196 5196 5196 5195 5195 5194 5194 5193 5192 5192 5191 5190 5190 5190 5190 5190 5190 5190 5190 5190 5189 5189 5189 5189 5189 5189 5189 5189 5189 5189 5190 5190 5191 5191 5191 5192 5192 5192 5193 5193 5194 5194 5194 5195 5195 5195 5195
5293 5290 5288 5286 5283 5281 5278 5275 5272 5269 5266 5263 5259 5256 5253 5249 5246 5242 5239 5235 5232 5229 5226 5223 5220 5216 5213 5210 5207 5204 5201 5199 5197 5196 5195 5194 5194 5193 5192 5192 5191 5191 5190 5190 5190 5189 5189 5188 5188 5187 5186 5186 5186 5186 5186 5186 5186 5186 5186 5186 5186 5186 5186 5186 5186 5186 5186 5186 5187 5187 5187 5188 5188 5189 5189 5190 5190 5190 5191 5191 5191 5192 5192 5192 5193
5288 5286 5284 5281 5279 5277 5274 5271 5269 5266 5262 5259 5256 5253 5249 5246 5243 5240 5237 5233 5230 5227 5224 5221 5218 5215 5211 5208 5205 5202 5199 5197 5195 5193 5191 5190 5189 5189 5188 5188 5187 5186 5186 5186 5185 5185 5185 5184 5184 5183 5183 5183 5182 5182 5182 5182 5182 5182 5183 5183 5183 5183 5183 5183 5183 5183 5183 5184 5184 5184 5184 5185 5185 5186 5186 5187 5187 5188 5188 5189 5189 5189 5190 5190 5190
5283 5281 5279 5277 5274 5272 5270 5267 5265 5262 5259 5256 5253 5249 5246 5243 5241 5238 5234 5231 5228 5225 5222 5219 5216 5213 5209 5206 5203 5200 5197 5194 5192 5190 5188 5186 5185 5184 5183 5183 5182 5182 5182 5181 5181 5181 5180 5180 5180 5180 5179 5179 5179 5179 5178 5178 5178 5179 5179 5179 5179 5179 5179 5180 5180 5180 5180 5181 5181 5181 5182 5182 5182 5183 5183 5184 5184 5185 5185 5186 5186 5187 5187 5187 5188
5278 5276 5274 5272 5270 5268 5266 5263 5261 5258 5255 5252 5249 5246 5243 5240 5237 5235 5232 5228 5225 5222 5219 5216 5213 5210 5207 5204 5201 5198 5195 5192 5189 5187 5184 5183 5181 5180 5179 5178 5177 5177 5177 5176 5176 5176 5176 5176 5175 5175 5175 5175 5175 5175 5175 5174 5174 5175 5175 5175 5175 5175 5176 5176 5176 5177 5177 5177 5178 5178 5179 5179 5179 5180 5180 5181 5181 5182 5182 5183 5183 5184 5184 5185 5185
5273 5271 5269 5267 5265 5263 5261 5259 5257 5254 5251 5248 5246 5243 5239 5237 5234 5231 5229 5225 5222 5219 5216 5213 5211 5208 5205 5201 5198 5195 5192 5189 5186 5183 5181 5179 5177 5175 5174 5173 5172 5172 5171 5171 5171 5171 5171 5171 5171 5171 5171 5171 5171 5171 5171 5171 5171 5171 5171 5171 5171 5172 5172 5172 5173 5173 5173 5174 5174 5175 5175 5176 5176 5177 5177 5178 5178 5179 5179 5180 5180 5181 5181 5182 5182
5268 5266 5264 5262 5260 5258 5256 5255 5252 5250 5247 5244 5242 5239 5236 5233 5230 5228 5225 5222 5219 5216 5213 5210 5207 5204 5201 5198 5195 5192 5189 5186 5183 5180 5178 5175 5173 5171 5170 5168 5167 5166 5166 5166 5165 5165 5165 5166 5166 5166 5166 5166 5166 5166 5166 5166 5166 5166 5167 5167 5167 5167 5168 5168 5168 5169 5169 5170 5170 5171 5172 5172 5173 5173 5174 5174 5175 5175 5176 5176 5177 5177 5178 5178 5179